Flag for Romania Weather past 2 weeks in Iasi, Romania

Now
70 °F

Sunny.


Feels Like: 70 °F
Forecast: 50 / 80 °F
Wind: 5 mph from Northeast

Location: Iasi Airport

Current Time: Aug 29, 2014 at 7:59:11 PM

Latest Report: Aug 29, 2014 at 7:30 PM


Visibility: 10 mi

Pressure: 30.12 "Hg

Humidity: 46%

Dew point: 48 °F

Location of IasiLocation

Historic Weather in Iasi — Graph

°F

Iasi temperature yesterday

Maximum temperature yesterday: 70 °F (at 4:30 PM)
Minimum temperature yesterday: 55 °F (at 7:30 AM)
Average temperature yesterday: 62 °F

Past Weeks' High & Low Weather Summary

 TemperatureHumidityPressure
High90 °F (Aug 14, 7:00 PM)100% (Aug 18, 5:00 AM)30.18 "Hg (Aug 18, 5:00 AM)
Low50 °F (Aug 29, 4:00 AM)31% (Aug 14, 7:00 PM)29.71 "Hg (Aug 27, 5:30 PM)
Average69 °F67%29.96 "Hg
* Reported Aug 14 7:00 PM — Aug 29 7:00 PM, Iasi, Weather by CustomWeather, © 2014

Note: Actual official high and low records may vary slightly from our data, if they occured in-between our weather recording intervals... More about our weather records

Advertising

Iasi weather history for previous 24 hours

 ConditionsComfort  
Time TempWeatherWind HumidityBarometerVisibility
7:00 PM
Aug 29
72 °FPassing clouds.5 mph41%30.12 "HgN/A
6:30 PM73 °FPassing clouds.5 mph38%30.12 "HgN/A
6:00 PM75 °FPassing clouds.5 mph34%30.12 "HgN/A
5:30 PM75 °FSunny.7 mph36%30.12 "Hg10 mi
5:00 PM75 °FPassing clouds.9 mph36%30.12 "HgN/A
4:30 PM75 °FPassing clouds.7 mph34%30.12 "HgN/A
4:00 PM75 °FSunny.9 mph34%30.12 "Hg10 mi
3:30 PM75 °FPassing clouds.7 mph34%30.12 "HgN/A
3:00 PM75 °FPassing clouds.9 mph31%30.15 "HgN/A
2:30 PM75 °FSunny.12 mph31%30.12 "Hg10 mi
2:00 PM73 °FPassing clouds.9 mph36%30.15 "HgN/A
1:30 PM73 °FPassing clouds.9 mph38%30.15 "HgN/A
1:00 PM72 °FPassing clouds.7 mph41%30.15 "HgN/A
12:30 PM72 °FPassing clouds.7 mph47%30.15 "HgN/A
12:00 PM72 °FScattered clouds.7 mph47%30.15 "HgN/A
11:30 AM72 °FPassing clouds.7 mph44%30.15 "HgN/A
11:00 AM70 °FSunny.5 mph50%30.18 "Hg10 mi
10:30 AM66 °FPassing clouds.5 mph60%30.18 "HgN/A
10:00 AM66 °FPassing clouds.7 mph60%30.18 "HgN/A
9:30 AM63 °FPassing clouds.7 mph64%30.18 "HgN/A
9:00 AM59 °FPassing clouds.5 mph72%30.15 "HgN/A
8:30 AM57 °FPassing clouds.5 mph77%30.15 "HgN/A
8:00 AM55 °FSunny.2 mph82%30.15 "Hg10 mi
7:30 AM54 °FSunny.2 mph88%30.15 "Hg10 mi
7:00 AM50 °FClear.5 mph94%30.15 "Hg10 mi
6:30 AM50 °FClear.5 mph94%30.15 "Hg10 mi
5:30 AM52 °FClear.5 mph88%30.15 "Hg10 mi
5:00 AM52 °FClear.5 mph88%30.12 "Hg10 mi
4:00 AM50 °FPassing clouds.5 mph94%30.12 "HgN/A
3:00 AM52 °FCool.2 mph94%30.12 "HgN/A
2:00 AM52 °FClear.5 mph94%30.12 "Hg10 mi
1:00 AM52 °FCool.5 mph94%30.12 "HgN/A
12:00 AM55 °FClear.2 mph77%30.12 "Hg10 mi
11:00 PM
Aug 28
57 °FClear.5 mph72%30.09 "Hg10 mi
10:00 PM57 °FClear.7 mph72%30.09 "Hg10 mi
8:00 PM63 °FSunny.5 mph64%30.07 "Hg10 mi
7:30 PM64 °FSunny.7 mph60%30.07 "Hg10 mi
7:00 PM66 °FPassing clouds.7 mph52%30.04 "HgN/A
Weather by CustomWeather, © 2014

See weather overviewHow to use our weather pages